Overview Statistics Trail Chart Weather Telemetry Raw packets
 

This is the latest recevied weather packets stored in our database for station/object N9BLE. If no packets are shown the sender has not sent any weather packets the latest 10 day(s).

<< 92 93 94 95 96 97 98 >>
Time Temp. Humidity Pressure Rain* Wind** Luminosity Snow
1777353895 14.44° C 90% 1008.7 hPa 0 mm - 0 W/m² -
1777353592 14.44° C 91% 1008.8 hPa 0 mm - 0 W/m² -
1777353291 14.44° C 93% 1008.7 hPa 0 mm - 0 W/m² -
1777352989 14.44° C 93% 1008.7 hPa 0 mm - 0 W/m² -
1777352687 14.44° C 94% 1008.6 hPa 0 mm - 0 W/m² -
1777352384 14.44° C 94% 1008.3 hPa 0 mm - 0 W/m² -
1777352081 14.44° C 95% 1008.3 hPa 0 mm - 0 W/m² -
1777351778 14.44° C 96% 1008.4 hPa 0 mm - 0 W/m² -
1777351476 14.44° C 97% 1008.4 hPa 0 mm - 0 W/m² -
1777351175 15° C 98% 1008.3 hPa 0 mm - 0 W/m² -
1777350873 15° C 98% 1008.3 hPa 0 mm - 0 W/m² -
1777350573 15° C 98% 1008.1 hPa 0 mm - 0 W/m² -
1777350271 15.56° C 99% 1007.8 hPa 0 mm - 0 W/m² -
1777349967 15.56° C 99% 1007.6 hPa 0 mm - 0 W/m² -
1777349665 15.56° C 99% 1007.6 hPa 0 mm - 0 W/m² -
1777349363 15.56° C 99% 1007.6 hPa 0 mm - 0 W/m² -
1777349061 15.56° C 99% 1007.5 hPa 0 mm - 0 W/m² -
1777348758 15.56° C 99% 1007.6 hPa 0 mm - 0 W/m² -
1777348456 15.56° C 99% 1007.8 hPa 0 mm - 0 W/m² -
1777348153 15.56° C 99% 1007.5 hPa 0 mm - 0 W/m² -
1777347851 15.56° C 98% 1007.5 hPa 3.05 mm - 0 W/m² -
1777347549 15.56° C 98% 1007.4 hPa 10.67 mm - 0 W/m² -
1777347244 15.56° C 98% 1007.7 hPa 9.65 mm - 0 W/m² -
1777346940 15.56° C 98% 1007.4 hPa 1.78 mm - 0 W/m² -
1777346637 15.56° C 98% 1007.2 hPa 0 mm - 0 W/m² -

* Rain latest hour (hover to see other rain measurements)
** Current wind speed in m/s (hover to see current wind gust speed)